Lid_Strength_Index
7 7 7 6 6 6 6 6 6 6 6 6 5 5 5 4 4 5 6 6 8 10 9 8 8 10 11 12 12 11 13 14 14 16 17 15 15 15 15 14 18 16 16 21 18 20 21 11 12 16 15 14 14 14
7 7 7 6 6 6 6 6 6 6 6 5 5 5 4 4 4 3 7 6 7 10 10 9 7 7 7 7 9 11 13 13 12 13 12 12 13 14 14 17 12 15 14 15 16 16 12 11 12 10 12 14 14 14
7 7 7 7 6 6 6 6 6 6 6 5 5 5 4 4 3 3 7 7 8 10 11 11 10 8 6 6 6 12 13 10 12 11 12 11 14 13 14 13 13 11 13 15 16 13 13 11 10 10 11 12 12 13
7 7 7 7 6 6 6 6 6 6 6 5 5 5 5 4 3 2 7 6 8 10 13 12 7 7 6 7 7 6 9 9 10 11 10 11 13 11 11 11 12 12 14 14 15 13 12 12 11 10 11 11 12 11
6 7 7 7 6 6 6 6 6 6 6 5 5 5 4 3 2 4 5 5 6 9 12 12 9 7 8 7 7 7 9 10 10 10 11 12 10 11 9 9 12 12 14 15 15 12 13 13 11 10 11 11 11 12
5 6 7 6 6 6 6 6 6 6 5 5 4 4 3 2 4 6 9 6 5 6 11 14 9 9 8 8 8 8 7 10 11 11 10 9 8 10 12 13 11 12 11 10 12 11 11 10 10 10 11 10 10 11
5 5 5 6 6 6 6 5 5 5 4 4 4 3 2 2 5 7 8 6 4 5 9 11 12 9 7 7 7 8 9 9 10 10 9 9 9 9 10 13 11 10 11 9 9 10 11 11 12 10 10 9 10 11
5 5 5 5 5 5 5 5 4 4 4 4 3 2 2 3 4 8 7 4 3 7 7 11 12 11 8 9 10 7 9 9 9 9 8 9 8 8 12 9 10 10 10 10 9 9 10 10 10 10 9 10 12 12
5 5 5 5 5 5 4 4 4 3 3 3 2 2 4 6 7 7 3 3 4 6 9 10 12 14 8 8 8 7 7 10 7 9 9 8 10 12 10 9 10 9 11 10 9 9 10 11 11 11 11 11 12 11
5 5 5 5 4 4 4 3 3 3 3 3 5 7 9 8 3 3 5 7 8 7 7 10 8 11 10 11 11 9 8 10 12 9 7 10 11 8 9 8 8 10 10 10 12 10 10 11 11 12 12 11 11 11
5 4 4 4 4 3 3 3 3 3 4 5 7 9 8 4 7 7 9 9 8 10 8 9 9 11 8 13 13 10 10 10 13 11 12 12 13 11 9 9 9 10 9 10 10 10 10 11 11 11 11 11 10 11
4 4 4 4 4 4 4 4 4 7 8 7 7 6 6 7 9 10 10 8 9 11 10 10 10 9 9 8 12 10 11 10 14 9 12 14 12 10 9 9 10 9 10 10 10 10 10 10 11 11 12 11 11 11
4 4 4 4 4 4 4 4 4 4 6 8 9 10 10 10 14 14 13 11 11 8 7 7 8 7 7 8 11 11 12 12 8 12 13 12 11 9 8 9 9 8 10 9 9 9 10 10 10 11 11 10 10 11
4 4 4 4 4 4 5 4 4 5 7 10 12 16 13 14 12 11 11 10 8 8 8 8 8 8 7 9 9 12 10 10 13 16 14 11 11 9 8 8 9 9 10 9 9 9 10 11 11 11 11 10 11 11
4 4 4 5 4 4 4 4 3 6 7 10 11 14 13 10 10 9 8 9 9 8 9 9 8 8 9 10 9 10 12 13 12 14 11 10 10 9 9 8 9 9 9 9 9 9 10 10 10 11 10 10 10 10
5 5 6 5 4 4 4 4 6 6 7 8 10 11 10 10 10 10 10 11 9 9 9 8 9 10 11 10 12 13 13 13 12 10 9 10 10 9 8 7 7 7 8 10 9 8 9 10 10 10 10 10 10 10
5 6 5 4 4 3 3 5 6 8 9 9 10 9 10 12 12 12 11 11 10 11 12 11 13 12 9 12 12 10 12 10 8 10 10 10 10 9 7 6 6 7 9 10 10 10 10 9 9 10 11 10 10 10
6 5 4 4 4 5 5 5 8 9 10 9 10 9 8 8 9 9 9 9 11 11 10 11 10 13 13 13 12 9 8 7 8 9 10 10 9 6 5 5 5 7 9 10 10 11 11 10 10 10 11 11 11 11
6 6 4 4 4 6 7 7 6 10 10 9 8 7 7 7 6 6 6 8 8 8 9 8 11 12 13 9 8 7 7 7 9 9 9 8 6 5 5 5 5 8 9 10 10 11 11 11 11 11 11 10 12 12
3 3 3 3 3 6 9 8 7 9 10 9 7 8 7 8 7 6 6 6 7 9 10 10 11 11 10 9 7 7 6 7 8 9 10 8 5 5 5 5 7 7 9 9 10 10 10 11 11 11 10 10 10 11
4 4 3 2 4 5 7 7 8 8 8 8 7 8 9 7 8 8 7 6 8 10 10 10 9 8 6 5 5 4 5 6 8 8 9 10 6 5 5 6 6 7 9 9 10 10 10 10 11 10 10 10 9 10
3 1 4 3 7 7 8 7 8 6 8 8 8 7 9 9 9 8 6 9 9 10 9 9 8 7 7 7 5 4 5 7 7 8 9 8 8 7 7 7 8 9 8 8 9 9 10 9 10 10 10 9 9 9
3 4 5 6 8 9 10 6 8 8 10 10 8 10 10 9 8 6 8 8 8 7 7 7 6 5 6 4 3 4 5 7 7 8 8 8 9 9 7 8 8 8 9 8 8 8 9 10 10 10 10 9 9 10
4 7 8 8 9 11 7 8 8 9 9 10 10 10 10 8 7 8 10 8 7 6 7 7 6 6 4 4 5 6 6 6 8 8 8 8 9 9 8 9 8 8 8 8 8 8 8 8 10 9 9 9 9 10
10 10 9 11 8 9 10 10 9 9 10 9 10 10 9 7 10 10 10 9 8 7 6 6 5 5 6 5 5 5 6 6 7 8 7 7 7 8 7 7 7 6 7 8 8 8 9 8 8 8 9 9 9 9
13 11 12 11 10 11 10 11 10 10 9 10 10 8 8 9 10 11 9 8 8 6 6 5 5 5 5 5 5 5 5 5 5 6 6 4 5 6 7 7 7 7 5 6 7 7 8 7 7 8 8 9 10 8
13 12 10 8 9 8 9 8 8 9 10 10 10 9 9 11 12 9 6 5 6 6 5 5 5 5 6 6 5 5 4 3 3 4 5 5 4 3 4 6 6 5 4 4 5 6 7 7 7 7 7 7 7 7
10 9 11 9 10 8 10 9 9 10 9 8 8 11 11 11 11 7 6 5 5 5 5 5 5 4 4 5 4 4 4 3 3 3 4 3 3 3 2 2 3 7 4 3 3 4 5 6 6 5 6 6 6 5
10 9 8 10 9 8 9 10 9 7 6 7 9 10 9 6 5 5 4 5 5 5 5 6 6 5 5 4 4 4 3 3 4 5 6 7 5 4 3 4 4 3 3 4 8 5 3 4 3 4 4 5 4 5
10 8 10 8 9 9 8 6 7 5 6 6 6 6 6 5 4 3 3 4 6 6 6 6 6 5 5 5 5 4 4 3 2 4 6 6 5 4 4 3 3 3 2 3 4 5 9 4 5 3 4 4 4 3
8 8 8 8 8 7 5 5 6 6 7 8 5 6 7 5 4 3 3 3 6 5 5 6 6 5 5 5 5 4 5 4 3 3 3 4 3 2 3 3 2 2 3 3 3 3 3 3 3 3 3 3 3 4
8 8 8 9 8 6 5 7 8 8 7 7 7 6 6 6 7 5 3 3 4 4 7 5 5 6 5 5 5 6 7 5 4 3 3 4 3 3 2 2 2 2 2 2 2 2 2 2 3 3 3 3 3 4
8 8 7 7 8 8 6 7 7 8 8 8 8 7 7 7 8 5 2 2 3 4 5 5 6 6 6 6 6 7 8 8 9 10 9 9 9 7 3 3 2 2 2 2 2 2 2 3 3 4 5 5 6 7